Terug naar catalogus

TIANMU-1 QIXIANG XINGZOU 01

ActiefWeerSSO
NORAD 55135·PAYLOAD·🇨🇳 China
Deze satellietnaam is nog niet bevestigd door officiële bronnen.

Gelanceerd Jan 9, 2023 vanaf Jiuquan Satellite Launch Center

Loading…

Volgende Passages (komende 24 uur)

TLE

VersSource: Space-Track

Epoch: Sep 14, 2026, 15:33 UTC

1 55135U 23003C   26257.64852352  .00022034  00000-0  27979-3 0  9992
2 55135  97.1447 334.4909 0003816 138.5464 221.6084 15.59420606206205

Volg TIANMU-1 QIXIANG XINGZOU 01 in realtime met AllMySat

Download on the App Store